"read_dt","SO2 (ppb)","flags","PMT voltage (V)","lamp voltage (V)","lamp intensity (Hz)","internal temp (C)","react chamber temp (C)","sample flow (l/min)","pres (mmHg)","SO2 bkg (ppb)","SO2 coefficient"
2018-07-15 00:00:00,-2.234E-01,4C000000*,-703.0,968.639,90,28.6,44.8,0.408,737.2,2.1,1.050*
2018-07-15 00:01:00,-2.924E-01,4C000000*,-702.6,969.044,90,28.5,45.1,0.408,736.9,2.1,1.050*
2018-07-15 00:02:00,-2.392E-01,4C000000*,-702.3,967.022,90,28.6,45.0,0.408,736.9,2.1,1.050*
2018-07-15 00:03:00,-1.787E-01,4C000000*,-702.3,967.831,90,28.5,44.9,0.408,737.2,2.1,1.050*
2018-07-15 00:04:00,-2.817E-01,4C000000*,-702.3,967.831,91,28.5,45.1,0.408,736.9,2.1,1.050*
2018-07-15 00:05:00,-2.937E-01,4C000000*,-703.0,967.831,90,28.5,44.9,0.407,737.2,2.1,1.050*
2018-07-15 00:06:00,-3.037E-01,4C000000*,-702.3,969.448,90,28.5,45.0,0.408,736.9,2.1,1.050*
2018-07-15 00:07:00,-2.452E-01,4C000000*,-702.3,968.639,90,28.6,44.8,0.408,737.2,2.1,1.050*
2018-07-15 00:08:00,-2.433E-01,4C000000*,-703.0,967.427,90,28.5,45.1,0.408,736.9,2.1,1.050*
2018-07-15 00:09:00,-3.114E-01,4C000000*,-703.0,968.235,90,28.5,44.9,0.408,736.9,2.1,1.050*
2018-07-15 00:10:00,-2.513E-01,4C000000*,-702.6,967.427,90,28.6,45.0,0.408,737.2,2.1,1.050*
2018-07-15 00:11:00,-2.591E-01,4C000000*,-703.0,967.427,91,28.6,45.1,0.408,736.9,2.1,1.050*
2018-07-15 00:12:00,-2.673E-01,4C000000*,-702.6,967.427,88,28.5,44.9,0.408,736.9,2.1,1.050*
2018-07-15 00:13:00,-3.134E-01,4C000000*,-703.0,966.618,91,28.5,45.1,0.408,736.9,2.1,1.050*
2018-07-15 00:14:00,-3.407E-01,4C000000*,-703.0,968.639,90,28.6,44.8,0.408,736.9,2.1,1.050*
2018-07-15 00:15:00,-2.770E-01,4C000000*,-702.3,967.427,90,28.6,45.2,0.408,736.9,2.1,1.050*
2018-07-15 00:16:00,-3.156E-01,4C000000*,-702.6,967.022,89,28.6,44.8,0.408,736.9,2.1,1.050*
2018-07-15 00:17:00,-2.600E-01,4C000000*,-703.0,967.427,90,28.6,45.0,0.408,737.2,2.1,1.050*
2018-07-15 00:18:00,-3.009E-01,4C000000*,-702.3,967.427,89,28.5,45.0,0.408,736.9,2.1,1.050*
2018-07-15 00:19:00,-2.460E-01,4C000000*,-702.6,967.022,89,28.7,44.9,0.408,736.9,2.1,1.050*
2018-07-15 00:20:00,-2.480E-01,4C000000*,-702.6,968.639,90,28.7,45.1,0.408,736.9,2.1,1.050*
2018-07-15 00:21:00,-2.889E-01,4C000000*,-702.6,968.235,90,28.6,44.9,0.408,736.9,2.1,1.050*
2018-07-15 00:22:00,-2.415E-01,4C000000*,-702.6,969.044,90,28.6,45.2,0.408,736.9,2.1,1.050*
2018-07-15 00:23:00,-3.826E-01,4C000000*,-702.6,967.831,90,28.6,44.8,0.408,736.9,2.1,1.050*
2018-07-15 00:24:00,-3.147E-01,4C000000*,-703.0,967.022,91,28.6,45.1,0.408,736.9,2.1,1.050*
2018-07-15 00:25:00,-2.719E-01,4C000000*,-702.6,968.235,89,28.7,44.9,0.408,736.9,2.1,1.050*
2018-07-15 00:26:00,-2.916E-01,4C000000*,-703.0,967.831,91,28.5,44.9,0.408,736.9,2.1,1.050*
2018-07-15 00:27:00,-3.095E-01,4C000000*,-702.6,968.235,91,28.7,45.1,0.408,736.9,2.1,1.050*
2018-07-15 00:28:00,-3.578E-01,4C000000*,-702.6,967.427,90,28.7,44.8,0.408,737.2,2.1,1.050*
2018-07-15 00:29:00,-3.542E-01,4C000000*,-702.6,969.448,91,28.7,45.1,0.408,736.9,2.1,1.050*
2018-07-15 00:30:00,-3.811E-01,4C000000*,-702.6,967.831,91,28.6,44.8,0.408,736.9,2.1,1.050*
2018-07-15 00:31:00,-2.325E-01,4C000000*,-702.6,967.427,89,28.7,45.0,0.408,736.9,2.1,1.050*
2018-07-15 00:32:00,-3.944E-01,4C000000*,-702.6,967.831,90,28.7,44.8,0.408,736.9,2.1,1.050*
2018-07-15 00:33:00,-2.754E-01,4C000000*,-702.3,969.044,90,28.7,45.0,0.408,736.9,2.1,1.050*
2018-07-15 00:34:00,-2.670E-01,4C000000*,-702.6,968.235,90,28.6,45.1,0.408,736.9,2.1,1.050*
2018-07-15 00:35:00,-2.700E-01,4C000000*,-702.3,968.639,91,28.6,44.9,0.408,737.2,2.1,1.050*
2018-07-15 00:36:00,-2.585E-01,4C000000*,-703.0,968.235,89,28.7,45.1,0.408,736.9,2.1,1.050*
2018-07-15 00:37:00,-2.606E-01,4C000000*,-702.6,968.639,91,28.6,44.8,0.408,737.2,2.1,1.050*
2018-07-15 00:38:00,-3.748E-01,4C000000*,-702.6,968.235,90,28.6,44.9,0.408,737.2,2.1,1.050*
2018-07-15 00:39:00,-3.068E-01,4C000000*,-702.6,969.852,90,28.7,45.1,0.408,736.9,2.1,1.050*
2018-07-15 00:40:00,-3.251E-01,4C000000*,-702.6,968.235,89,28.6,44.8,0.408,736.9,2.1,1.050*
2018-07-15 00:41:00,-2.700E-01,4C000000*,-702.6,967.022,91,28.7,45.0,0.407,737.2,2.1,1.050*
2018-07-15 00:42:00,-2.389E-01,4C000000*,-702.6,967.427,90,28.7,44.9,0.408,736.9,2.1,1.050*
2018-07-15 00:43:00,-3.262E-01,4C000000*,-703.0,967.427,89,28.7,45.0,0.408,736.9,2.1,1.050*
2018-07-15 00:44:00,-3.026E-01,4C000000*,-702.6,967.831,91,28.7,45.1,0.408,736.9,2.1,1.050*
2018-07-15 00:45:00,-2.393E-01,4C000000*,-702.6,967.022,90,28.7,44.9,0.408,736.9,2.1,1.050*
2018-07-15 00:46:00,-2.285E-01,4C000000*,-702.6,967.022,90,28.6,45.2,0.407,736.9,2.1,1.050*
2018-07-15 00:47:00,-3.092E-01,4C000000*,-702.6,969.448,90,28.7,44.9,0.408,736.9,2.1,1.050*
2018-07-15 00:48:00,-3.489E-01,4C000000*,-703.0,969.448,89,28.7,45.1,0.407,736.9,2.1,1.050*
2018-07-15 00:49:00,-2.617E-01,4C000000*,-703.0,969.448,90,28.7,44.9,0.408,736.9,2.1,1.050*
2018-07-15 00:50:00,-2.851E-01,4C000000*,-702.6,968.235,89,28.7,45.0,0.408,736.9,2.1,1.050*
2018-07-15 00:51:00,-3.576E-01,4C000000*,-702.6,967.831,90,28.7,45.1,0.408,736.9,2.1,1.050*
2018-07-15 00:52:00,-2.352E-01,4C000000*,-702.6,967.427,90,28.7,44.9,0.408,736.9,2.1,1.050*
2018-07-15 00:53:00,-1.796E-01,4C000000*,-703.0,967.831,89,28.7,45.1,0.408,736.9,2.1,1.050*
2018-07-15 00:54:00,-3.192E-01,4C000000*,-702.6,968.235,88,28.7,44.9,0.408,737.2,2.1,1.050*
2018-07-15 00:55:00,-2.447E-01,4C000000*,-702.6,967.831,90,28.6,45.1,0.408,736.9,2.1,1.050*
2018-07-15 00:56:00,-2.500E-01,4C000000*,-702.6,969.044,91,28.6,44.9,0.408,737.2,2.1,1.050*
2018-07-15 00:57:00,-2.417E-01,4C000000*,-702.6,967.427,90,28.6,45.1,0.408,737.2,2.1,1.050*
2018-07-15 00:58:00,-2.889E-01,4C000000*,-702.3,967.427,90,28.6,45.0,0.408,736.9,2.1,1.050*
2018-07-15 00:59:00,-2.175E-01,4C000000*,-702.6,968.639,87,28.7,44.9,0.408,736.9,2.1,1.050*
2018-07-15 01:00:00,-2.198E-01,4C000000*,-703.0,967.831,89,28.6,45.1,0.408,737.2,2.1,1.050*
2018-07-15 01:01:00,-2.370E-01,4C000000*,-703.0,967.831,91,28.6,44.8,0.408,736.9,2.1,1.050*
2018-07-15 01:02:00,-2.832E-01,4C000000*,-702.6,969.448,89,28.6,45.0,0.408,736.9,2.1,1.050*
2018-07-15 01:03:00,-3.424E-01,4C000000*,-703.0,967.831,90,28.7,45.1,0.408,736.9,2.1,1.050*
2018-07-15 01:04:00,-2.679E-01,4C000000*,-703.0,968.235,89,28.6,44.9,0.408,736.9,2.1,1.050*
2018-07-15 01:05:00,-2.906E-01,4C000000*,-703.0,968.235,91,28.6,45.1,0.408,736.9,2.1,1.050*
2018-07-15 01:06:00,-3.178E-01,4C000000*,-702.6,969.852,87,28.6,44.9,0.408,736.9,2.1,1.050*
2018-07-15 01:07:00,-2.458E-01,4C000000*,-702.6,969.044,88,28.7,45.1,0.408,736.9,2.1,1.050*
2018-07-15 01:08:00,-2.843E-01,4C000000*,-703.0,968.639,91,28.6,45.0,0.408,736.9,2.1,1.050*
2018-07-15 01:09:00,-2.052E-01,4C000000*,-702.6,968.639,90,28.7,44.8,0.408,736.9,2.1,1.050*
2018-07-15 01:10:00,-2.238E-01,4C000000*,-702.6,968.235,90,28.7,45.2,0.408,736.9,2.1,1.050*
2018-07-15 01:11:00,-2.441E-01,4C000000*,-702.6,969.044,90,28.7,44.9,0.408,736.9,2.1,1.050*
2018-07-15 01:12:00,-2.595E-01,4C000000*,-702.3,969.044,90,28.6,44.9,0.408,737.2,2.1,1.050*
2018-07-15 01:13:00,-1.993E-01,4C000000*,-702.6,968.639,90,28.7,45.2,0.408,736.9,2.1,1.050*
2018-07-15 01:14:00,-2.794E-01,4C000000*,-702.6,969.448,90,28.7,44.8,0.408,736.9,2.1,1.050*
2018-07-15 01:15:00,-2.519E-01,4C000000*,-702.6,969.448,90,28.7,45.0,0.408,736.9,2.1,1.050*
2018-07-15 01:16:00,-3.073E-01,4C000000*,-702.6,969.448,90,28.7,45.0,0.408,736.9,2.1,1.050*
2018-07-15 01:17:00,-3.067E-01,4C000000*,-702.6,968.235,89,28.7,45.0,0.408,737.2,2.1,1.050*
2018-07-15 01:18:00,-2.513E-01,4C000000*,-702.3,968.639,91,28.7,45.1,0.408,736.9,2.1,1.050*
2018-07-15 01:19:00,-3.026E-01,4C000000*,-702.6,969.852,90,28.7,44.8,0.408,736.9,2.1,1.050*
2018-07-15 01:20:00,-2.305E-01,4C000000*,-703.0,968.639,89,28.7,45.2,0.407,736.9,2.1,1.050*
2018-07-15 01:21:00,-3.411E-01,4C000000*,-702.3,968.235,90,28.7,44.8,0.408,736.9,2.1,1.050*
2018-07-15 01:22:00,-3.057E-01,4C000000*,-702.6,968.639,90,28.7,45.1,0.408,736.9,2.1,1.050*
2018-07-15 01:23:00,-1.869E-01,4C000000*,-702.6,969.044,90,28.6,44.9,0.408,736.9,2.1,1.050*
2018-07-15 01:24:00,-2.795E-01,4C000000*,-702.3,967.831,89,28.7,45.0,0.408,737.2,2.1,1.050*
2018-07-15 01:25:00,-2.607E-01,4C000000*,-703.0,969.044,90,28.7,45.1,0.408,736.9,2.1,1.050*
2018-07-15 01:26:00,-3.119E-01,4C000000*,-703.0,967.831,90,28.7,44.9,0.408,736.9,2.1,1.050*
2018-07-15 01:27:00,-3.284E-01,4C000000*,-702.6,967.427,90,28.7,45.2,0.408,736.9,2.1,1.050*
2018-07-15 01:28:00,-3.020E-01,4C000000*,-703.0,967.831,90,28.7,44.8,0.408,736.9,2.1,1.050*
2018-07-15 01:29:00,-2.746E-01,4C000000*,-702.6,968.235,87,28.7,45.0,0.408,737.2,2.1,1.050*
2018-07-15 01:30:00,-3.425E-01,4C000000*,-702.6,967.831,90,28.7,44.9,0.408,736.6,2.1,1.050*
2018-07-15 01:31:00,-2.408E-01,4C000000*,-702.6,968.235,90,28.7,45.0,0.408,736.9,2.1,1.050*
2018-07-15 01:32:00,-2.595E-01,4C000000*,-702.6,969.852,90,28.7,45.1,0.408,736.9,2.1,1.050*
2018-07-15 01:33:00,-2.905E-01,4C000000*,-703.0,968.235,90,28.7,44.9,0.408,736.9,2.1,1.050*
2018-07-15 01:34:00,-2.844E-01,4C000000*,-702.6,968.235,90,28.7,45.1,0.408,736.9,2.1,1.050*
2018-07-15 01:35:00,-3.500E-01,4C000000*,-702.6,967.022,91,28.8,44.9,0.408,736.9,2.1,1.050*
2018-07-15 01:36:00,-2.257E-01,4C000000*,-702.6,969.044,89,28.7,45.1,0.408,736.9,2.1,1.050*
2018-07-15 01:37:00,-2.442E-01,4C000000*,-702.6,968.639,89,28.7,44.8,0.408,736.9,2.1,1.050*
2018-07-15 01:38:00,-3.158E-01,4C000000*,-703.0,967.831,89,28.8,45.0,0.408,736.9,2.1,1.050*
2018-07-15 01:39:00,-2.428E-01,4C000000*,-702.3,967.831,90,28.8,45.0,0.408,736.9,2.1,1.050*
2018-07-15 01:40:00,-2.966E-01,4C000000*,-702.6,969.044,91,28.7,44.9,0.408,736.9,2.1,1.050*
2018-07-15 01:41:00,-3.053E-01,4C000000*,-702.6,969.044,91,28.8,45.1,0.408,736.9,2.1,1.050*
2018-07-15 01:42:00,-2.455E-01,4C000000*,-702.6,968.639,89,28.8,44.8,0.408,736.9,2.1,1.050*
2018-07-15 01:43:00,-2.322E-01,4C000000*,-703.0,969.044,90,28.8,45.2,0.408,736.9,2.1,1.050*
2018-07-15 01:44:00,-3.000E-01,4C000000*,-702.3,969.044,89,28.8,44.8,0.408,736.9,2.1,1.050*
2018-07-15 01:45:00,-3.264E-01,4C000000*,-702.6,969.448,88,28.8,45.1,0.408,736.9,2.1,1.050*
2018-07-15 01:46:00,-2.803E-01,4C000000*,-702.6,967.427,91,28.8,44.9,0.408,736.9,2.1,1.050*
2018-07-15 01:47:00,-2.224E-01,4C000000*,-702.6,968.235,89,28.8,45.0,0.408,736.9,2.1,1.050*
2018-07-15 01:48:00,-2.465E-01,4C000000*,-702.6,968.235,90,28.8,45.1,0.408,736.9,2.1,1.050*
2018-07-15 01:49:00,-2.529E-01,4C000000*,-703.0,968.639,90,28.8,44.9,0.408,736.9,2.1,1.050*
2018-07-15 01:50:00,-3.029E-01,4C000000*,-702.6,969.044,90,28.7,45.2,0.408,736.9,2.1,1.050*
2018-07-15 01:51:00,-3.017E-01,4C000000*,-702.6,969.044,88,28.7,44.8,0.408,736.9,2.1,1.050*
2018-07-15 01:52:00,-2.848E-01,4C000000*,-702.6,968.235,89,28.8,45.1,0.408,736.9,2.1,1.050*
2018-07-15 01:53:00,-2.291E-01,4C000000*,-702.6,968.235,89,28.7,44.9,0.408,736.9,2.1,1.050*
2018-07-15 01:54:00,-3.599E-01,4C000000*,-702.6,967.427,91,28.8,45.0,0.408,736.9,2.1,1.050*
2018-07-15 01:55:00,-3.685E-01,4C000000*,-702.6,967.831,90,28.8,45.1,0.408,736.6,2.1,1.050*
2018-07-15 01:56:00,-1.549E-01,4C000000*,-702.3,967.831,90,28.8,44.9,0.408,737.2,2.1,1.050*
2018-07-15 01:57:00,-2.638E-01,4C000000*,-702.6,968.235,90,28.9,45.2,0.408,736.9,2.1,1.050*
2018-07-15 01:58:00,-3.161E-01,4C000000*,-702.6,968.235,88,28.8,44.8,0.408,737.2,2.1,1.050*
2018-07-15 01:59:00,-2.638E-01,4C000000*,-702.6,968.235,90,28.9,45.1,0.408,736.9,2.1,1.050*
2018-07-15 02:00:00,-2.972E-01,4C000000*,-702.6,968.235,90,28.9,44.9,0.408,736.9,2.1,1.050*
2018-07-15 02:01:00,-3.710E-01,4C000000*,-703.0,967.831,90,28.7,45.0,0.408,736.9,2.1,1.050*
2018-07-15 02:02:00,-2.291E-01,4C000000*,-703.0,968.639,91,28.8,45.1,0.408,736.9,2.1,1.050*
2018-07-15 02:03:00,-3.313E-01,4C000000*,-703.0,968.639,91,28.9,44.9,0.408,736.9,2.1,1.050*
2018-07-15 02:04:00,-3.125E-01,4C000000*,-703.0,969.044,88,28.9,45.1,0.408,736.9,2.1,1.050*
2018-07-15 02:05:00,-2.873E-01,4C000000*,-702.6,969.448,90,28.8,44.9,0.408,737.2,2.1,1.050*
2018-07-15 02:06:00,-2.967E-01,4C000000*,-702.6,968.639,91,28.8,45.2,0.408,736.9,2.1,1.050*
2018-07-15 02:07:00,-2.564E-01,4C000000*,-702.6,967.427,90,28.9,44.8,0.408,736.9,2.1,1.050*
2018-07-15 02:08:00,-3.232E-01,4C000000*,-702.6,967.427,90,28.8,45.0,0.408,737.2,2.1,1.050*
2018-07-15 02:09:00,-2.351E-01,4C000000*,-703.4,968.639,87,28.9,44.9,0.408,736.9,2.1,1.050*
2018-07-15 02:10:00,-2.883E-01,4C000000*,-702.6,968.235,90,28.9,45.0,0.408,736.9,2.1,1.050*
2018-07-15 02:11:00,-2.281E-01,4C000000*,-702.6,968.235,89,28.8,45.1,0.408,737.2,2.1,1.050*
2018-07-15 02:12:00,-3.422E-01,4C000000*,-702.6,968.235,90,28.8,44.8,0.408,737.2,2.1,1.050*
2018-07-15 02:13:00,-3.134E-01,4C000000*,-702.6,969.044,89,28.9,45.2,0.408,736.9,2.1,1.050*
2018-07-15 02:14:00,-2.388E-01,4C000000*,-702.6,969.044,90,28.8,44.8,0.408,736.9,2.1,1.050*
2018-07-15 02:15:00,-2.855E-01,4C000000*,-702.6,967.427,91,28.8,45.1,0.408,736.9,2.1,1.050*
2018-07-15 02:16:00,-2.621E-01,4C000000*,-702.6,967.427,90,28.9,44.9,0.408,736.9,2.1,1.050*
2018-07-15 02:17:00,-2.035E-01,4C000000*,-702.6,968.235,90,28.9,45.0,0.408,736.9,2.1,1.050*
2018-07-15 02:18:00,-2.651E-01,4C000000*,-702.6,968.235,92,28.9,45.1,0.408,736.9,2.1,1.050*
2018-07-15 02:19:00,-2.318E-01,4C000000*,-702.3,967.427,91,28.9,44.9,0.408,736.9,2.1,1.050*
2018-07-15 02:20:00,-3.170E-01,4C000000*,-703.0,968.639,90,28.9,45.2,0.408,736.9,2.1,1.050*
2018-07-15 02:21:00,-2.915E-01,4C000000*,-702.6,969.448,90,29.0,44.8,0.408,737.2,2.1,1.050*
2018-07-15 02:22:00,-1.882E-01,4C000000*,-702.6,968.235,90,28.9,45.0,0.407,737.2,2.1,1.050*
2018-07-15 02:23:00,-2.758E-01,4C000000*,-702.6,967.831,90,28.8,44.8,0.408,736.9,2.1,1.050*
2018-07-15 02:24:00,-2.662E-01,4C000000*,-702.6,968.639,91,28.9,45.0,0.408,737.2,2.1,1.050*
2018-07-15 02:25:00,-2.355E-01,4C000000*,-703.0,967.831,89,28.9,45.1,0.408,737.2,2.1,1.050*
2018-07-15 02:26:00,-2.806E-01,4C000000*,-702.6,967.022,91,28.9,44.9,0.408,737.2,2.1,1.050*
2018-07-15 02:27:00,-3.043E-01,4C000000*,-702.6,968.235,89,28.9,45.1,0.408,736.9,2.1,1.050*
2018-07-15 02:28:00,-2.851E-01,4C000000*,-702.6,967.831,90,28.9,44.8,0.408,736.9,2.1,1.050*
2018-07-15 02:29:00,-2.358E-01,4C000000*,-702.6,968.235,90,28.9,45.1,0.408,736.9,2.1,1.050*
2018-07-15 02:30:00,-2.661E-01,4C000000*,-702.6,967.427,89,28.9,44.8,0.408,736.9,2.1,1.050*
2018-07-15 02:31:00,-2.730E-01,4C000000*,-702.6,967.831,90,29.0,45.0,0.408,736.9,2.1,1.050*
2018-07-15 02:32:00,-2.709E-01,4C000000*,-702.6,968.639,90,28.9,45.1,0.408,736.9,2.1,1.050*
2018-07-15 02:33:00,-2.144E-01,4C000000*,-702.6,967.831,89,29.0,44.9,0.408,736.9,2.1,1.050*
2018-07-15 02:34:00,-2.712E-01,4C000000*,-702.6,967.831,89,29.0,45.0,0.408,736.9,2.1,1.050*
2018-07-15 02:35:00,-2.934E-01,4C000000*,-702.6,967.831,90,28.9,44.8,0.408,736.9,2.1,1.050*
2018-07-15 02:36:00,-3.197E-01,4C000000*,-702.6,968.235,90,28.9,45.2,0.408,736.9,2.1,1.050*
2018-07-15 02:37:00,-2.494E-01,4C000000*,-703.0,967.427,89,28.9,44.8,0.408,736.9,2.1,1.050*
2018-07-15 02:38:00,-1.954E-01,4C000000*,-702.3,969.044,90,28.9,45.0,0.408,736.6,2.1,1.050*
2018-07-15 02:39:00,-3.050E-01,4C000000*,-702.6,968.235,90,28.9,44.9,0.408,736.9,2.1,1.050*
2018-07-15 02:40:00,-3.007E-01,4C000000*,-703.0,967.831,91,29.0,45.0,0.408,736.9,2.1,1.050*
2018-07-15 02:41:00,-3.097E-01,4C000000*,-703.0,967.831,90,28.9,45.1,0.408,736.9,2.1,1.050*
2018-07-15 02:42:00,-3.383E-01,4C000000*,-702.6,967.831,91,28.9,44.8,0.408,736.9,2.1,1.050*
2018-07-15 02:43:00,-3.801E-01,4C000000*,-702.6,967.022,89,29.0,45.2,0.407,736.9,2.1,1.050*
2018-07-15 02:44:00,-2.503E-01,4C000000*,-702.6,967.831,91,28.9,44.8,0.408,736.9,2.1,1.050*
2018-07-15 02:45:00,-2.257E-01,4C000000*,-702.3,967.022,91,29.0,45.1,0.408,736.9,2.1,1.050*
2018-07-15 02:46:00,-3.182E-01,4C000000*,-702.6,967.022,91,29.0,44.9,0.408,736.9,2.1,1.050*
2018-07-15 02:47:00,-3.024E-01,4C000000*,-702.6,967.022,90,29.0,45.0,0.408,737.2,2.1,1.050*
2018-07-15 02:48:00,-2.157E-01,4C000000*,-702.6,967.427,90,29.0,45.1,0.408,736.9,2.1,1.050*
2018-07-15 02:49:00,-2.461E-01,4C000000*,-702.6,969.448,90,29.0,44.8,0.408,736.9,2.1,1.050*
2018-07-15 02:50:00,-2.272E-01,4C000000*,-703.0,967.022,91,29.0,45.2,0.408,736.9,2.1,1.050*
2018-07-15 02:51:00,-3.414E-01,4C000000*,-702.3,967.427,88,29.0,44.9,0.408,736.9,2.1,1.050*
2018-07-15 02:52:00,-3.243E-01,4C000000*,-702.6,967.427,89,29.0,45.1,0.408,736.9,2.1,1.050*
2018-07-15 02:53:00,-2.197E-01,4C000000*,-702.6,966.618,88,29.0,44.9,0.408,736.9,2.1,1.050*
2018-07-15 02:54:00,-2.713E-01,4C000000*,-702.6,966.618,90,29.0,45.0,0.408,736.9,2.1,1.050*
2018-07-15 02:55:00,-3.602E-01,4C000000*,-702.6,967.427,89,29.0,45.1,0.408,736.9,2.1,1.050*
2018-07-15 02:56:00,-2.541E-01,4C000000*,-702.6,968.235,89,29.0,44.9,0.408,736.9,2.1,1.050*
2018-07-15 02:57:00,-3.022E-01,4C000000*,-702.6,968.639,90,29.0,45.1,0.408,736.9,2.1,1.050*
2018-07-15 02:58:00,-3.418E-01,4C000000*,-703.0,966.618,90,29.0,44.8,0.408,736.9,2.1,1.050*
2018-07-15 02:59:00,-3.339E-01,4C000000*,-703.0,968.235,92,29.1,45.2,0.408,736.9,2.1,1.050*
2018-07-15 03:00:00,-3.311E-01,4C000000*,-702.3,968.639,90,29.1,44.8,0.408,737.2,2.1,1.050*
2018-07-15 03:01:00,-2.992E-01,4C000000*,-702.6,967.831,89,29.1,45.1,0.408,736.9,2.1,1.050*
2018-07-15 03:02:00,-2.966E-01,4C000000*,-702.3,969.044,90,29.0,45.1,0.408,736.9,2.1,1.050*
2018-07-15 03:03:00,-3.354E-01,4C000000*,-702.6,968.235,88,29.0,45.0,0.408,736.9,2.1,1.050*
2018-07-15 03:04:00,-2.597E-01,4C000000*,-702.6,968.235,89,29.0,45.1,0.408,736.9,2.1,1.050*
2018-07-15 03:05:00,-3.450E-01,4C000000*,-703.0,967.022,89,29.1,44.8,0.408,737.2,2.1,1.050*
2018-07-15 03:06:00,-2.959E-01,4C000000*,-702.6,967.427,90,29.1,45.2,0.408,736.9,2.1,1.050*
2018-07-15 03:07:00,-3.355E-01,4C000000*,-702.6,968.235,89,29.0,44.8,0.408,736.9,2.1,1.050*
2018-07-15 03:08:00,-2.934E-01,4C000000*,-702.6,968.235,89,29.0,45.0,0.408,736.9,2.1,1.050*
2018-07-15 03:09:00,-3.131E-01,4C000000*,-702.6,968.235,88,29.1,45.0,0.409,736.9,2.1,1.050*
2018-07-15 03:10:00,-2.683E-01,4C000000*,-702.6,968.639,89,28.9,44.8,0.408,736.9,2.1,1.050*
2018-07-15 03:11:00,-3.035E-01,4C000000*,-702.6,967.831,87,29.0,45.1,0.408,736.9,2.1,1.050*
2018-07-15 03:12:00,-3.368E-01,4C000000*,-703.0,967.427,89,29.0,44.9,0.408,737.2,2.1,1.050*
2018-07-15 03:13:00,-2.997E-01,4C000000*,-702.6,967.022,88,29.0,45.0,0.408,736.9,2.1,1.050*
2018-07-15 03:14:00,-3.052E-01,4C000000*,-702.6,967.427,90,29.0,45.0,0.408,736.6,2.1,1.050*
2018-07-15 03:15:00,-2.957E-01,4C000000*,-702.3,968.235,90,29.0,44.9,0.408,736.9,2.1,1.050*
2018-07-15 03:16:00,-2.796E-01,4C000000*,-703.0,968.235,91,29.1,45.1,0.408,736.9,2.1,1.050*
2018-07-15 03:17:00,-2.342E-01,4C000000*,-702.6,967.831,91,29.1,44.8,0.408,736.9,2.1,1.050*
2018-07-15 03:18:00,-2.707E-01,4C000000*,-703.0,968.235,90,29.0,45.2,0.408,736.9,2.1,1.050*
2018-07-15 03:19:00,-3.272E-01,4C000000*,-703.0,968.639,89,29.0,44.8,0.408,736.9,2.1,1.050*
2018-07-15 03:20:00,-2.239E-01,4C000000*,-702.6,966.214,91,29.0,45.1,0.408,736.9,2.1,1.050*
2018-07-15 03:21:00,-3.532E-01,4C000000*,-702.6,967.831,90,29.0,45.0,0.408,736.9,2.1,1.050*
2018-07-15 03:22:00,-2.251E-01,4C000000*,-703.0,967.022,90,29.1,44.9,0.408,736.6,2.1,1.050*
2018-07-15 03:23:00,-1.985E-01,4C000000*,-702.6,967.831,89,29.1,45.1,0.408,736.9,2.1,1.050*
2018-07-15 03:24:00,-2.777E-01,4C000000*,-702.3,967.831,90,29.0,44.8,0.408,736.9,2.1,1.050*
2018-07-15 03:25:00,-2.675E-01,4C000000*,-703.0,968.235,89,29.1,45.2,0.408,736.9,2.1,1.050*
2018-07-15 03:26:00,-2.632E-01,4C000000*,-702.6,967.427,90,29.1,44.9,0.408,736.9,2.1,1.050*
2018-07-15 03:27:00,-2.403E-01,4C000000*,-702.6,969.448,90,29.1,45.0,0.408,736.9,2.1,1.050*
2018-07-15 03:28:00,-3.009E-01,4C000000*,-703.0,967.022,90,29.1,44.9,0.408,736.9,2.1,1.050*
2018-07-15 03:29:00,-3.084E-01,4C000000*,-702.6,968.235,90,29.1,45.0,0.408,736.9,2.1,1.050*
2018-07-15 03:30:00,-2.567E-01,4C000000*,-702.6,969.044,89,29.1,45.1,0.408,736.9,2.1,1.050*
2018-07-15 03:31:00,-3.466E-01,4C000000*,-703.4,967.831,90,29.1,44.9,0.408,736.9,2.1,1.050*
2018-07-15 03:32:00,-2.162E-01,4C000000*,-702.6,967.831,89,29.0,45.1,0.408,736.9,2.1,1.050*
2018-07-15 03:33:00,-3.029E-01,4C000000*,-702.6,969.852,91,29.2,44.9,0.408,737.2,2.1,1.050*
2018-07-15 03:34:00,-2.512E-01,4C000000*,-702.6,968.235,90,29.0,45.1,0.408,736.9,2.1,1.050*
2018-07-15 03:35:00,-3.031E-01,4C000000*,-702.6,967.831,89,29.1,44.8,0.408,736.9,2.1,1.050*
2018-07-15 03:36:00,-2.362E-01,4C000000*,-702.6,968.639,90,29.1,45.0,0.408,737.2,2.1,1.050*
2018-07-15 03:37:00,-2.833E-01,4C000000*,-702.6,967.427,91,29.1,45.1,0.408,736.9,2.1,1.050*
2018-07-15 03:38:00,-3.692E-01,4C000000*,-703.0,967.427,89,29.0,44.9,0.408,737.2,2.1,1.050*
2018-07-15 03:39:00,-3.138E-01,4C000000*,-702.6,968.639,88,29.1,45.1,0.408,736.9,2.1,1.050*
2018-07-15 03:40:00,-2.911E-01,4C000000*,-703.0,969.044,90,29.1,44.8,0.408,736.9,2.1,1.050*
2018-07-15 03:41:00,-2.535E-01,4C000000*,-702.6,969.448,91,29.1,45.2,0.408,737.2,2.1,1.050*
2018-07-15 03:42:00,-2.969E-01,4C000000*,-703.0,968.639,90,29.1,44.8,0.408,736.9,2.1,1.050*
2018-07-15 03:43:00,-2.878E-01,4C000000*,-702.6,969.852,91,29.1,45.1,0.408,737.2,2.1,1.050*
2018-07-15 03:44:00,-3.229E-01,4C000000*,-702.6,969.044,89,29.0,44.9,0.408,737.2,2.1,1.050*
2018-07-15 03:45:00,-3.125E-01,4C000000*,-703.0,968.639,90,29.1,44.9,0.408,737.2,2.1,1.050*
2018-07-15 03:46:00,-2.434E-01,4C000000*,-702.6,968.639,90,29.1,45.1,0.408,736.9,2.1,1.050*
2018-07-15 03:47:00,-3.407E-01,4C000000*,-703.0,967.427,90,29.1,44.9,0.408,736.9,2.1,1.050*
2018-07-15 03:48:00,-1.761E-01,4C000000*,-703.0,968.639,89,29.2,45.2,0.408,736.9,2.1,1.050*
2018-07-15 03:49:00,-3.323E-01,4C000000*,-702.6,967.831,91,29.1,44.8,0.408,736.9,2.1,1.050*
2018-07-15 03:50:00,-2.169E-01,4C000000*,-702.6,967.427,90,29.1,45.1,0.408,736.9,2.1,1.050*
2018-07-15 03:51:00,-2.657E-01,4C000000*,-702.6,968.235,90,29.1,45.0,0.408,736.9,2.1,1.050*
2018-07-15 03:52:00,-3.312E-01,4C000000*,-702.6,968.235,90,29.1,45.0,0.408,737.2,2.1,1.050*
2018-07-15 03:53:00,-3.102E-01,4C000000*,-702.6,967.427,90,29.1,45.1,0.408,736.9,2.1,1.050*
2018-07-15 03:54:00,-3.654E-01,4C000000*,-703.0,968.639,90,29.1,44.9,0.408,736.9,2.1,1.050*
2018-07-15 03:55:00,-2.216E-01,4C000000*,-703.0,966.618,90,29.1,45.1,0.408,736.9,2.1,1.050*
2018-07-15 03:56:00,-3.196E-01,4C000000*,-702.6,969.448,90,29.1,44.9,0.408,736.9,2.1,1.050*
2018-07-15 03:57:00,-2.329E-01,4C000000*,-702.6,967.427,90,29.1,45.1,0.408,737.2,2.1,1.050*
2018-07-15 03:58:00,-2.400E-01,4C000000*,-703.0,968.235,91,29.1,44.9,0.408,736.9,2.1,1.050*
2018-07-15 03:59:00,-3.277E-01,4C000000*,-702.6,968.235,90,29.1,45.0,0.408,737.2,2.1,1.050*
2018-07-15 04:00:00,-3.230E-01,4C000000*,-702.6,967.022,91,29.1,45.1,0.408,736.9,2.1,1.050*
2018-07-15 04:01:00,-2.266E-01,4C000000*,-703.0,968.639,91,29.1,44.9,0.408,737.2,2.1,1.050*
2018-07-15 04:02:00,-2.736E-01,4C000000*,-702.6,968.639,90,29.1,45.1,0.408,737.2,2.1,1.050*
2018-07-15 04:03:00,-2.591E-01,4C000000*,-702.6,967.427,90,29.1,44.8,0.408,737.2,2.1,1.050*
2018-07-15 04:04:00,-2.608E-01,4C000000*,-702.6,966.618,89,29.1,45.1,0.408,737.2,2.1,1.050*
2018-07-15 04:05:00,-2.601E-01,4C000000*,-702.6,968.235,91,29.1,44.9,0.408,736.9,2.1,1.050*
2018-07-15 04:06:00,-2.739E-01,4C000000*,-702.6,967.831,91,29.1,45.0,0.408,737.2,2.1,1.050*
2018-07-15 04:07:00,-2.937E-01,4C000000*,-702.6,967.022,90,29.1,45.0,0.408,736.9,2.1,1.050*
2018-07-15 04:08:00,-1.501E-01,4C000000*,-703.0,967.427,88,29.1,44.9,0.408,737.2,2.1,1.050*
2018-07-15 04:09:00,-3.146E-01,4C000000*,-702.6,968.235,90,29.2,45.1,0.408,737.2,2.1,1.050*
2018-07-15 04:10:00,-1.996E-01,4C000000*,-702.3,967.427,90,29.1,44.8,0.408,737.2,2.1,1.050*
2018-07-15 04:11:00,-3.086E-01,4C000000*,-702.6,967.427,89,29.1,45.2,0.408,736.9,2.1,1.050*
2018-07-15 04:12:00,-3.316E-01,4C000000*,-702.6,967.831,90,29.1,44.9,0.408,736.9,2.1,1.050*
2018-07-15 04:13:00,-2.116E-01,4C000000*,-703.0,968.235,91,29.2,45.1,0.408,737.2,2.1,1.050*
2018-07-15 04:14:00,-2.067E-01,4C000000*,-703.0,966.618,89,29.1,44.9,0.408,736.9,2.1,1.050*